FW0308 Weather Reports


time (UTC)temp
F
wind
direction
speed
knots
gust
knots
rain 1hr
in
rain 24hr
in
rain mn
in
humidity
%
barometer
mb
20260506183107 58 288 0.0 0.0 0.01 0.27 0.27 94 1007.0
20260506181601 58 274 0.0 0.0 0.01 0.27 0.27 94 1007.4
20260506180055 58 240 0.0 0.0 0.03 0.27 0.27 93 1007.6
20260506174554 58 281 0.0 0.0 0.02 0.26 0.26 93 1007.5
20260506173059 58 256 0.0 0.0 0.03 0.26 0.26 93 1007.6
20260506171553 58 286 0.0 0.0 0.03 0.26 0.26 93 1007.5
20260506170057 58 287 0.0 0.0 0.03 0.24 0.24 93 1007.5
20260506164606 58 332 0.0 0.0 0.06 0.24 0.24 93 1007.5
20260506163059 57 312 0.0 0.0 0.08 0.23 0.23 93 1007.5
20260506161550 57 29 0.0 0.0 0.09 0.23 0.23 93 1007.7
20260506160055 57 290 0.0 0.0 0.07 0.21 0.21 93 1007.8
20260506154549 57 288 0.0 0.0 0.05 0.18 0.18 93 1007.9
20260506153045 57 298 0.0 0.0 0.04 0.15 0.15 93 1008.2
20260506151545 57 285 0.0 0.0 0.05 0.14 0.14 92 1008.0
20260506150053 57 290 0.0 0.0 0.06 0.14 0.14 92 1008.0
20260506144542 58 299 0.0 0.0 0.07 0.13 0.13 92 1008.0
20260506143041 57 37 0.0 0.0 0.07 0.11 0.11 92 1008.0
20260506141543 57 290 0.0 0.0 0.07 0.09 0.09 91 1008.5
20260506140037 57 257 0.0 0.0 0.07 0.08 0.08 91 1008.6
20260506134536 58 262 0.0 0.0 0.06 0.06 0.06 90 1008.7
20260506133040 58 285 0.0 0.0 0.04 0.04 0.04 89 1008.9
20260506131532 58 253 0.0 0.0 0.02 0.02 0.02 88 1009.1
20260506130032 59 291 0.0 0.0 0.01 0.01 0.01 87 1008.9
20260506124530 59 236 0.0 0.0 0.00 0.00 0.00 85 1008.8
20260506123028 59 307 0.0 0.0 0.00 0.00 0.00 84 1008.5
20260506121527 59 338 0.0 0.0 0.00 0.00 0.00 83 1008.7
20260506120046 60 327 0.0 0.0 0.00 0.00 0.00 81 1008.7
20260506114521 61 259 0.0 0.0 0.00 0.00 0.00 77 1008.9
20260506113020 61 342 0.0 0.0 0.00 0.00 0.00 76 1008.7
20260506111519 61 293 0.0 0.0 0.00 0.00 0.00 75 1008.7
20260506110018 61 284 0.0 1.7 0.00 0.00 0.00 74 1008.7
20260506104527 61 203 0.0 0.0 0.00 0.00 0.00 73 1008.2
20260506103034 61 307 0.0 0.0 0.00 0.00 0.00 72 1008.4
20260506101513 61 82 0.0 0.0 0.00 0.00 0.00 71 1008.2
20260506100012 62 311 0.0 0.0 0.00 0.00 0.00 70 1008.5
20260506094512 62 285 0.0 0.0 0.00 0.00 0.00 70 1008.5
20260506093017 62 280 0.0 0.0 0.00 0.00 0.00 69 1008.3
20260506091508 62 295 0.0 0.0 0.00 0.00 0.00 68 1008.5
20260506090005 62 297 0.0 0.0 0.00 0.00 0.00 67 1008.3
20260506084504 62 288 0.0 0.9 0.00 0.00 0.00 67 1008.6
20260506083004 63 267 0.0 0.0 0.00 0.00 0.00 66 1008.6
20260506081503 63 297 0.0 0.0 0.00 0.00 0.00 65 1008.6
20260506080104 63 254 0.0 0.0 0.00 0.00 0.00 64 1008.7
20260506073056 64 220 0.0 0.0 0.00 0.00 0.00 62 1009.0
20260506071558 64 227 0.0 0.0 0.00 0.00 0.00 62 1009.0
20260506061549 64 288 0.0 0.0 0.00 0.00 0.00 60 1009.5
20260506044540 65 226 0.0 0.0 0.00 0.00 0.00 56 1009.9
20260506043044 65 238 0.0 0.0 0.00 0.00 0.00 56 1009.8
20260506041538 65 278 0.0 0.0 0.00 0.00 0.00 56 1009.9
20260506040037 65 291 0.0 0.0 0.00 0.00 0.00 57 1009.9
20260506034535 65 278 0.0 0.0 0.00 0.00 0.00 58 1010.0
20260506033034 65 324 0.0 0.0 0.00 0.00 0.00 58 1010.0
20260506031541 65 255 0.0 0.0 0.00 0.00 0.00 58 1010.0
20260506030034 65 307 0.0 0.0 0.00 0.00 0.00 56 1010.0
20260506024537 66 332 0.0 0.0 0.00 0.00 0.00 55 1010.1
20260506023051 67 306 0.0 0.0 0.00 0.00 0.00 53 1010.1
20260506021559 68 309 0.0 0.0 0.00 0.00 0.00 52 1010.2
20260506020031 69 287 0.0 0.0 0.00 0.00 0.00 51 1010.2
20260506014530 69 285 0.0 0.0 0.00 0.00 0.00 50 1010.1
20260506013034 69 294 0.0 0.0 0.00 0.00 0.00 49 1009.9
20260506011530 70 302 0.0 0.0 0.00 0.00 0.00 49 1009.8
20260506010029 71 281 0.0 0.0 0.00 0.00 0.00 48 1009.6
20260506004529 71 274 0.0 0.0 0.00 0.00 0.00 49 1009.4
20260506003028 71 244 0.0 0.0 0.00 0.00 0.00 48 1009.2
20260506001527 71 278 0.0 0.0 0.00 0.00 0.00 48 1009.1
20260506000026 71 302 0.0 0.0 0.00 0.00 0.00 47 1009.0
20260505234526 72 235 0.0 0.0 0.00 0.00 0.00 44 1008.9
20260505233027 72 235 0.0 0.0 0.00 0.00 0.00 44 1008.9
20260505231541 72 236 0.0 0.0 0.00 0.00 0.00 43 1008.9
20260505230027 73 250 0.0 0.0 0.00 0.00 0.00 43 1008.9
20260505224523 73 245 0.0 0.0 0.00 0.00 0.00 42 1008.7
20260505223022 73 258 0.0 0.0 0.00 0.00 0.00 43 1008.6
20260505221522 73 272 0.0 5.2 0.00 0.00 0.00 42 1008.6
20260505220023 74 188 0.0 5.2 0.00 0.00 0.00 42 1008.5
20260505214520 74 286 0.0 5.2 0.00 0.00 0.00 40 1008.3
20260505213028 74 276 0.0 0.0 0.00 0.00 0.00 44 1008.4
20260505211519 74 217 0.0 0.0 0.00 0.00 0.00 43 1008.4
20260505210017 75 207 0.0 3.5 0.00 0.00 0.00 39 1008.2
20260505204515 75 243 0.9 5.2 0.00 0.00 0.00 39 1007.9
20260505203022 76 292 0.0 0.0 0.00 0.00 0.00 39 1008.0
20260505201527 77 302 0.0 7.0 0.00 0.00 0.00 37 1007.9
20260505200013 79 248 0.9 4.3 0.00 0.00 0.00 36 1007.8
20260505194510 79 282 0.9 6.1 0.00 0.00 0.00 36 1007.8
20260505193009 78 319 0.0 5.2 0.00 0.00 0.00 36 1008.1
20260505191511 79 250 0.9 7.0 0.00 0.00 0.00 35 1008.3
20260505190011 78 221 0.0 6.1 0.00 0.00 0.00 36 1008.8
20260505184506 79 226 0.9 5.2 0.00 0.00 0.00 36 1008.7